This is the latest recevied weather packets stored in our database for station/object WI0K. If no packets are shown the sender has not sent any weather packets the latest 10 day(s).
| Time | Temp. | Humidity | Pressure | Rain* | Wind** | Luminosity | Snow |
|---|---|---|---|---|---|---|---|
| 1777854808 | 19.44° C | 23% | 1012.8 hPa | 0 mm | - | 76 W/m² | - |
| 1777854507 | 19.44° C | 24% | 1012.9 hPa | 0 mm | - | 60 W/m² | - |
| 1777854207 | 19.44° C | 24% | 1012.8 hPa | 0 mm | - | 47 W/m² | - |
| 1777853906 | 19.44° C | 23% | 1012.6 hPa | 0 mm | - | 39 W/m² | - |
| 1777853606 | 19.44° C | 23% | 1012.5 hPa | 0 mm | - | 47 W/m² | - |
| 1777853305 | 19.44° C | 23% | 1012.4 hPa | 0 mm | - | 65 W/m² | - |
| 1777853004 | 19.44° C | 23% | 1012.3 hPa | 0 mm | - | 96 W/m² | - |
| 1777852704 | 19.44° C | 23% | 1012.3 hPa | 0 mm | - | 121 W/m² | - |
| 1777852403 | 19.44° C | 23% | 1012.4 hPa | 0 mm | - | 144 W/m² | - |
| 1777852102 | 19.44° C | 23% | 1012.5 hPa | 0 mm | - | 139 W/m² | - |
| 1777851802 | 19.44° C | 24% | 1012.8 hPa | 0 mm | - | 99 W/m² | - |
| 1777851501 | 20° C | 23% | 1012.9 hPa | 0 mm | - | 88 W/m² | - |
| 1777851200 | 20° C | 23% | 1012.8 hPa | 0 mm | - | 79 W/m² | - |
| 1777850900 | 20.56° C | 21% | 1012.6 hPa | 0 mm | - | 70 W/m² | - |
| 1777850599 | 20.56° C | 20% | 1012.4 hPa | 0 mm | - | 73 W/m² | - |
| 1777850299 | 20.56° C | 21% | 1012.4 hPa | 0 mm | - | 87 W/m² | - |
| 1777849998 | 20.56° C | 20% | 1012.4 hPa | 0 mm | - | 101 W/m² | - |
| 1777849697 | 21.11° C | 20% | 1012.3 hPa | 0 mm | - | 118 W/m² | - |
| 1777849397 | 21.11° C | 19% | 1012.3 hPa | 0 mm | - | 140 W/m² | - |
| 1777849096 | 21.11° C | 20% | 1012.2 hPa | 0 mm | - | 144 W/m² | - |
| 1777848796 | 21.67° C | 18% | 1012.3 hPa | 0 mm | - | 136 W/m² | - |
| 1777848495 | 21.67° C | 19% | 1012.4 hPa | 0 mm | - | 152 W/m² | - |
| 1777848194 | 21.67° C | 18% | 1012.4 hPa | 0 mm | - | 186 W/m² | - |
| 1777847894 | 21.67° C | 18% | 1012.4 hPa | 0 mm | - | 207 W/m² | - |
| 1777847593 | 21.67° C | 19% | 826.3 hPa | 0 mm | - | 211 W/m² | - |
* Rain latest hour (hover to see other rain measurements)
** Current wind speed in m/s (hover to see current wind gust speed)